Regional Weather Roundup
Issued by NWS

Home | Current Version | Previous Version | Text Only | Print | Product List | Glossary Off
Versions: 1 2 3 4 5 6 7 8 9 10 11 12 13 14 15 16 17 18 19 20 21 22 23 24 25 26 27 28 29 30 31 32 33 34 35 36 37 38 39 40 41 42 43 44 45 46 47 48 49 50

000
ASUS45 KABQ 241801
RWRNM
NEW MEXICO REGIONAL WEATHER ROUNDUP
NATIONAL WEATHER SERVICE ALBUQUERQUE NM
1200 PM MDT SAT SEP 24 2016

NOTE: "FAIR" MEANS FEW OR NO CLOUDS BELOW 12,000 FEET AGL WITH NO
       SIGNIFICANT WEATHER OR OBSTRUCTIONS TO VISION.

      THIS PRODUCT IS RELEASED AS TWO VERSIONS.  ONE VERSION NEAR
      THE TOP OF THE HOUR CONTAINING PRELIMINARY DATA FROM ALBUQUERQUE
      AND OTHER STATIONS.  A FINAL VERSION WITH ADDITIONAL DATA IS
      ISSUED ABOUT 10 MINUTES AFTER THE HOUR.

NMZ501-503-504-510>518-241900-
NORTHWEST PLATEAU/NORTHCENTRAL MOUNTAINS

CITY           SKY/WX    TMP DP  RH WIND       PRES   REMARKS
FARMINGTON     FAIR      56  35  45 SW6       30.21S
6HR MIN TEMP:  36; 6HR MAX TEMP:  57;

LOS ALAMOS     FAIR      52  31  43 NE8       30.23S
SANTA FE       FAIR      60  29  30 SW13      30.19S
6HR MIN TEMP:  37; 6HR MAX TEMP:  60;

TAOS           FAIR      54  30  40 S9        30.23S
ANGEL FIRE     FAIR      50  28  42 W13       30.24S

$$
NMZ402-403-502-505>509-241900-
WESTCENTRAL MOUNTAINS/SOUTHWEST MOUNTAINS

CITY           SKY/WX    TMP DP  RH WIND       PRES   REMARKS
GALLUP         FAIR      59  30  33 W8G17     30.22F
6HR MIN TEMP:  25; 6HR MAX TEMP:  59;

SILVER CITY    FAIR      70  40  34 W13G23    30.17F

$$
NMZ407-409-411-412-241900-
SOUTHERN DESERTS

CITY           SKY/WX    TMP DP  RH WIND       PRES   REMARKS
DEMING         FAIR      75  46  35 W13       30.12F
6HR MIN TEMP:  53; 6HR MAX TEMP:  75;

LAS CRUCES     FAIR      77  43  29 W16G26    30.12F
HOLLOMAN AFB   FAIR      77  42  28 W12G17    30.07F
ALAMOGORDO     FAIR      75  41  29 SW8       30.10F
T OR C         FAIR      71  38  29 VRB3      30.11F
6HR MIN TEMP:  56; 6HR MAX TEMP:  73;


$$
NMZ519>523-241900-
CENTRAL VALLEYS/CENTRAL HIGHLANDS

CITY           SKY/WX    TMP DP  RH WIND       PRES   REMARKS
ALBUQUERQUE    FAIR      62  30  29 N5        30.19S
6HR MIN TEMP:  42; 6HR MAX TEMP:  62;

DOUBLE EAGLE   SUNNY     63  27  25 W9G16     30.20S
CLINES CORNERS FAIR      59  28  30 NW22      30.20S
6HR MIN TEMP:  38; 6HR MAX TEMP:  59;

BELEN          NOT AVBL
SOCORRO        FAIR      71  21  15 NE7       30.13F
6HR MIN TEMP:  45; 6HR MAX TEMP:  71;


$$
NMZ524>526-539-540-241900-
SOUTHCENTRAL MOUNTAINS

CITY           SKY/WX    TMP DP  RH WIND       PRES   REMARKS
RUIDOSO        FAIR      64  36  34 N7        30.22F

$$
NMZ527>531-241900-
NORTHEAST HIGHLANDS/NORTHEAST PLAINS

CITY           SKY/WX    TMP DP  RH WIND       PRES   REMARKS
LAS VEGAS      FAIR      66  22  18 N8        30.13F
6HR MIN TEMP:  38; 6HR MAX TEMP:  66;

RATON          FAIR      65  26  23 VRB6      30.09S
6HR MIN TEMP:  38; 6HR MAX TEMP:  65;

CLAYTON        FAIR      70  37  29 SE12G20   30.05F
6HR MIN TEMP:  43; 6HR MAX TEMP:  71;


$$
NMZ532>537-241900-
EASTCENTRAL PLAINS

CITY           SKY/WX    TMP DP  RH WIND       PRES   REMARKS
TUCUMCARI      LGT RAIN  81  18   9 W20G26    30.01F
6HR MIN TEMP:  51; 6HR MAX TEMP:  81; 6HR PCP: TRACE;

CANNON AFB     FAIR      76  33  21 W15G22    30.05S
6HR MIN TEMP:  56; 6HR MAX TEMP:  76;

CLOVIS AIRPORT FAIR      77  39  25 W15       30.05S

$$
NMZ028-029-538-241900-
SOUTHEAST PLAINS

CITY           SKY/WX    TMP DP  RH WIND       PRES   REMARKS
ROSWELL        FAIR      81  47  30 W7        30.03F
6HR MIN TEMP:  58; 6HR MAX TEMP:  81;

ARTESIA        FAIR      77  52  41 VRB5      30.04F
CARLSBAD       FAIR      83  49  30 W17G23    30.00F
6HR MIN TEMP:  62; 6HR MAX TEMP:  83;

HOBBS          SUNNY     77  57  50 NE6       30.06S


$$



USA.gov is the U.S. government's official web portal to all federal, state and local government web resources and services.